FW2175 Weather Reports


time (UTC)temp
C
wind
direction
speed
KPH
gust
KPH
rain 1hr
cm
rain 24hr
cm
rain mn
cm
humidity
%
barometer
mb
20260503180041 21 0 1.6 8.0 0.00 0.00 0.00 40 1014.4
20260503174600 20 0 0.0 8.0 0.00 0.00 0.00 44 1014.5
20260503173036 20 246 1.6 4.8 0.00 0.00 0.00 46 1014.6
20260503171541 19 0 0.0 6.4 0.00 0.00 0.00 50 1014.6
20260503081552 12 0 0.0 1.6 0.00 0.00 0.00 61 1015.1
20260503071600 13 0 0.0 0.0 0.00 0.00 0.00 60 1015.1
20260503054552 13 0 0.0 3.2 0.00 0.00 0.00 58 1014.7
20260503053036 14 0 1.6 3.2 0.00 0.00 0.00 58 1014.7
20260503051549 14 0 0.0 3.2 0.00 0.00 0.00 59 1014.7
20260503050043 15 0 0.0 4.8 0.00 0.00 0.00 58 1014.7
20260503044540 15 0 0.0 3.2 0.00 0.00 0.00 58 1014.5
20260503043044 16 69 1.6 4.8 0.00 0.00 0.00 57 1014.3
20260503041537 16 39 4.8 8.0 0.00 0.00 0.00 57 1014.2
20260503040045 16 80 1.6 4.8 0.00 0.00 0.00 58 1014.1
20260503034546 17 54 1.6 3.2 0.00 0.00 0.00 57 1014.0
20260503033053 18 0 0.0 3.2 0.00 0.00 0.00 55 1013.6
20260503031541 20 81 1.6 3.2 0.00 0.00 0.00 51 1013.6
20260503030038 20 0 0.0 4.8 0.00 0.00 0.00 48 1013.5
20260503024548 21 0 0.0 3.2 0.00 0.00 0.00 45 1013.4
20260503023047 21 231 0.0 4.8 0.00 0.00 0.00 44 1013.3
20260503021538 22 0 0.0 4.8 0.00 0.00 0.00 45 1013.3
20260503020045 22 165 1.6 4.8 0.00 0.00 0.00 44 1013.3
20260503014556 22 151 0.0 3.2 0.00 0.00 0.00 44 1013.5
20260503013047 23 111 0.0 4.8 0.00 0.00 0.00 43 1013.6
20260503011553 23 0 1.6 4.8 0.00 0.00 0.00 37 1013.7
20260503010041 23 142 1.6 3.2 0.00 0.00 0.00 42 1013.8
20260503004541 23 145 1.6 3.2 0.00 0.00 0.00 39 1013.8
20260503003101 23 128 1.6 6.4 0.00 0.00 0.00 40 1013.8
20260503001542 24 117 3.2 12.9 0.00 0.00 0.00 38 1013.8
20260503000042 23 159 3.2 11.3 0.00 0.00 0.00 40 1014.0
20260502234601 23 92 1.6 8.0 0.00 0.00 0.00 39 1014.1
20260502233041 23 177 1.6 6.4 0.00 0.00 0.00 42 1014.3
20260502231545 23 0 1.6 8.0 0.00 0.00 0.00 43 1014.5
20260502224541 23 157 1.6 6.4 0.00 0.00 0.00 46 1014.8
20260502223053 23 185 3.2 8.0 0.00 0.00 0.00 42 1014.9
20260502221545 22 178 3.2 6.4 0.00 0.00 0.00 47 1015.1
20260502220043 22 182 3.2 9.7 0.00 0.00 0.00 47 1015.3
20260502214539 23 196 1.6 8.0 0.00 0.00 0.00 48 1015.6
20260502213046 22 190 3.2 8.0 0.00 0.00 0.00 46 1015.7
20260502211544 21 273 0.0 8.0 0.00 0.00 0.00 50 1015.8
20260502210046 21 169 3.2 8.0 0.00 0.00 0.00 54 1016.1
20260502204541 21 183 3.2 8.0 0.00 0.00 0.00 52 1016.3
20260502203049 21 174 3.2 12.9 0.00 0.00 0.00 54 1016.3
20260502201542 21 192 3.2 12.9 0.00 0.00 0.00 50 1016.3
20260502200037 21 283 4.8 12.9 0.00 0.00 0.00 53 1016.3
20260502194542 21 162 3.2 11.3 0.00 0.00 0.00 53 1016.4
20260502193055 21 194 4.8 12.9 0.00 0.00 0.00 51 1016.4
20260502191541 21 235 4.8 14.5 0.00 0.00 0.00 51 1016.5
20260502190043 20 304 8.0 14.5 0.00 0.00 0.00 50 1016.8
20260502184553 20 237 4.8 16.1 0.00 0.00 0.00 46 1016.9
20260502183040 20 329 3.2 6.4 0.00 0.00 0.00 48 1017.0
20260502181544 19 261 3.2 8.0 0.00 0.00 0.00 53 1017.2